World > North America > United States > Washington   City of Wenatchee, WA

Wenatchee, Washington Regional Weather

Lat: 47.43N, Lon: 120.32W
Wx Zone: WAZ041Web Search
Wenatchee Weather Warning NWS WEATHER ALERT FOR THE WENATCHEE, WA AREA - Issued: 459 AM PDT Thu Sep 17 2020 Wenatchee Weather Warning  

Helpful Tip: Abbreviated, 7 Day, 14 Day Forecasts. There is a weather forecast for every taste.

Feedback
Wenatchee Weather Map
UTC Time: 9/18/2020, 11:02
Your Time:

Wenatchee, WA Regional Weather

Expires:202009181100;;995004
ASUS46 KSEW 181020
RWRWA 

WASHINGTON REGIONAL WEATHER ROUNDUP
NATIONAL WEATHER SERVICE SEATTLE WA
300 AM PDT FRI SEP 18 2020

NOTE:"FAIR" INDICATES FEW OR NO CLOUDS BELOW 12,000 FEET WITH NO 
SIGNIFICANT WEATHER AND/OR OBSTRUCTIONS TO VISIBILITY.


WAZ026-027-041>044-520-521-181100-
EAST SLOPES
  
CITY           SKY/WX    TMP DP  RH WIND       PRES   REMARKS
OMAK           CLOUDY    60  47  61 N9        29.85F HAZE             
WENATCHEE      CLOUDY    62  48  60 W13       29.84S HAZE             
ELLENSBURG     CLOUDY    63  53  70 NW10      29.87S HAZE             
YAKIMA         CLOUDY    51  46  83 W7        29.84F HAZE             
SUNNYSIDE ARPT   N/A     50  49  96 NE3       29.84  FOG              
YAKIMA TC      PTSUNNY   61  48  62 E5        29.84F HAZE             
$$


SKY/WX - Weather  TMP - Temperature  DP - Dew Point  RH - Relative Humidity
WIND - Wind Direction/Speed PRES - Barometric Pressure VSB - Visibility
WCI - Wind Chill Index E13G22 Wind - East Wind 13 mph/Gusts of 22 mph